Location: Riedlingen
(48.1569°N, 9.4757°E)
Time: 21:06:26
(UTC+01:00)

ISS - Pass Details

Date: 06 January 2018
Orbit: 402 x 407 km, 51.6° (Epoch: 23 January)

Event Time Altitude Azimuth Distance (km) Brightness Sun altitude
Exits shadow 06:45:36 26° 307° (NW) 845 -2.8 -13.7°
Maximum altitude 06:47:04 44° 5° (N) 574 -3.2 -13.5°
Drops below altitude 10° 06:50:18 10° 80° (E) 1,493 0.0 -13.0°
Sets 06:52:23 0° 86° (E) 2,332 1.4 -12.7°
